This is the latest recevied weather packets stored in our database for station/object N7WSS. If no packets are shown the sender has not sent any weather packets the latest 10 day(s).
| Time | Temp. | Humidity | Pressure | Rain* | Wind** | Luminosity | Snow |
|---|---|---|---|---|---|---|---|
| 1777954200 | 15.56° C | 72% | 1013.2 hPa | 0 mm | - | - | - |
| 1777953898 | 15.56° C | 71% | 1013 hPa | 0 mm | - | - | - |
| 1777953594 | 15.56° C | 72% | 1012.9 hPa | 0 mm | - | - | - |
| 1777953290 | 15.56° C | 69% | 1012.8 hPa | 0 mm | - | - | - |
| 1777952988 | 15.56° C | 69% | 1012.5 hPa | 0 mm | - | - | - |
| 1777952684 | 15.56° C | 66% | 1012.4 hPa | 0 mm | - | - | - |
| 1777952381 | 15.56° C | 67% | 1012.4 hPa | 0 mm | - | - | - |
| 1777952078 | 15.56° C | 65% | 1012.6 hPa | 0 mm | - | - | - |
| 1777951776 | 15.56° C | 64% | 1012.4 hPa | 0 mm | - | - | - |
| 1777951473 | 15.56° C | 64% | 1012.5 hPa | 0 mm | - | - | - |
| 1777951169 | 15.56° C | 64% | 1012.7 hPa | 0 mm | - | - | - |
| 1777950867 | 15.56° C | 65% | 1012.4 hPa | 0 mm | - | - | - |
| 1777950563 | 16.11° C | 62% | 1012.4 hPa | 0 mm | - | - | - |
| 1777950259 | 16.11° C | 59% | 1012.6 hPa | 0 mm | - | - | - |
| 1777949955 | 16.11° C | 57% | 1012.6 hPa | 0 mm | - | - | - |
| 1777949652 | 16.11° C | 58% | 1012.7 hPa | 0 mm | - | - | - |
| 1777949351 | 16.11° C | 57% | 1012.5 hPa | 0 mm | - | - | - |
| 1777949048 | 16.67° C | 57% | 1012.5 hPa | 0 mm | - | - | - |
| 1777948745 | 17.22° C | 54% | 1012.4 hPa | 0 mm | - | - | - |
| 1777948442 | 17.78° C | 48% | 1012.5 hPa | 0 mm | - | - | - |
| 1777948139 | 17.78° C | 43% | 1012.6 hPa | 0 mm | - | - | - |
| 1777947836 | 17.22° C | 49% | 1012.6 hPa | 0 mm | - | - | - |
| 1777947534 | 17.78° C | 46% | 1012.4 hPa | 0 mm | - | - | - |
| 1777947230 | 16.67° C | 56% | 1012.6 hPa | 0 mm | - | - | - |
| 1777946926 | 16.67° C | 57% | 1012.5 hPa | 0 mm | - | - | - |
* Rain latest hour (hover to see other rain measurements)
** Current wind speed in m/s (hover to see current wind gust speed)